Location: Cz?stochówka
(50.8142°N, 19.0915°E)
Time: 09:42:08
(UTC+00:00)

Lacrosse 4 Rocket - Pass Details

Date: 13 January 2026
Orbit: 512 x 564 km, 68.0° (Epoch: 18 February)

Event Time Altitude Azimuth Distance (km) Brightness Sun altitude
Rises 05:40:06 0° 198° (SSW) 2,656 4.9 -9.3°
Reaches altitude 10° 05:42:20 10° 192° (SSW) 1,763 4.0 -9.0°
Maximum altitude 05:46:06 47° 119° (ESE) 701 2.5 -8.4°
Drops below altitude 10° 05:49:52 10° 45° (NE) 1,754 4.2 -7.9°
Sets 05:52:05 0° 39° (NE) 2,641 5.0 -7.6°
